Simultaneous Nadir Overpasses (SNOs) Predictions

Prediction of SNOs between GOES-16 and METOP-B Satellite Orbit:

Table of predicted SNOs for the next 14.0 days since TLE Epoch: 4/22/2023
Index Date Time (GOES-16) GOES-16 Lat,Lon METOP-B Lat,Lon Distance(km) Time Diff (sec)
1 04/23/2023 02:42:44 -0.06, -75.20 -0.65, -77.76 291.81 80
2 04/24/2023 02:19:25 -0.05, -75.20 0.48, -72.76 277.29 80
3 04/25/2023 14:38:16 0.05, -75.20 0.52, -77.33 242.04 80
4 04/26/2023 14:20:17 0.04, -75.21 -0.62, -72.34 327.51 80
5 04/28/2023 02:39:16 -0.04, -75.22 -0.43, -76.93 195.49 80
6 04/29/2023 02:15:56 -0.04, -75.22 0.71, -71.94 374.50 80
7 04/30/2023 14:34:47 0.03, -75.24 0.33, -76.50 143.40 80
8 05/01/2023 14:16:47 0.03, -75.25 -0.81, -71.51 427.18 80
9 05/03/2023 02:35:47 -0.03, -75.27 -0.22, -76.10 94.26 80
10 05/04/2023 02:12:26 -0.03, -75.29 0.88, -71.10 476.59 80
11 05/05/2023 14:31:17 0.03, -75.31 0.09, -75.67 40.43 80
